TimeHST,TemperatureF,Dew PointF,Humidity,Sea Level PressureIn,VisibilityMPH,Wind Direction,Wind SpeedMPH,Gust SpeedMPH,PrecipitationIn,Events,Conditions,WindDirDegrees,DateUTC
12:53 AM,69.1,66.0,90,29.88,10.0,WSW,5.8,-,0.00,,Mostly Cloudy,240,2014-01-14 10:53:00
1:53 AM,68.0,66.0,93,29.87,10.0,WSW,5.8,-,N/A,,Mostly Cloudy,240,2014-01-14 11:53:00
2:53 AM,66.0,64.0,93,29.86,10.0,West,8.1,-,N/A,,Clear,260,2014-01-14 12:53:00
3:53 AM,66.9,64.0,90,29.85,10.0,West,6.9,-,N/A,,Clear,280,2014-01-14 13:53:00
4:53 AM,66.9,63.0,87,29.85,10.0,WNW,4.6,-,N/A,,Scattered Clouds,290,2014-01-14 14:53:00
5:53 AM,64.9,62.1,90,29.86,10.0,West,5.8,-,N/A,,Clear,260,2014-01-14 15:53:00
6:53 AM,68.0,64.0,87,29.87,10.0,SW,10.4,-,N/A,,Clear,230,2014-01-14 16:53:00
7:53 AM,68.0,64.0,87,29.88,10.0,West,4.6,-,N/A,,Clear,260,2014-01-14 17:53:00
8:53 AM,73.0,66.9,81,29.89,10.0,SW,13.8,-,N/A,,Clear,230,2014-01-14 18:53:00
9:53 AM,75.9,66.0,71,29.91,10.0,SW,13.8,-,N/A,,Clear,230,2014-01-14 19:53:00
10:53 AM,79.0,66.9,66,29.90,10.0,WSW,12.7,-,N/A,,Overcast,250,2014-01-14 20:53:00
11:53 AM,78.1,66.0,66,29.88,10.0,WSW,13.8,-,N/A,,Mostly Cloudy,250,2014-01-14 21:53:00
12:53 PM,75.9,64.9,69,29.86,10.0,NW,5.8,-,N/A,,Mostly Cloudy,320,2014-01-14 22:53:00
1:53 PM,78.1,66.9,68,29.83,10.0,SW,10.4,-,0.00,,Mostly Cloudy,220,2014-01-14 23:53:00
2:53 PM,78.1,64.9,64,29.83,10.0,Variable,3.5,-,N/A,,Partly Cloudy,0,2014-01-15 00:53:00
3:31 PM,75.2,66.2,73,29.83,10.0,NNE,9.2,-,N/A,,Overcast,30,2014-01-15 01:31:00
3:41 PM,77.0,66.2,69,29.84,10.0,Calm,Calm,-,N/A,,Overcast,0,2014-01-15 01:41:00
3:53 PM,75.9,64.9,69,29.83,10.0,WNW,6.9,-,N/A,,Overcast,290,2014-01-15 01:53:00
4:04 PM,75.2,64.4,69,29.83,10.0,Variable,4.6,-,N/A,,Scattered Clouds,0,2014-01-15 02:04:00
4:53 PM,75.9,66.0,71,29.84,10.0,ENE,5.8,-,N/A,,Partly Cloudy,70,2014-01-15 02:53:00
5:53 PM,73.9,66.9,79,29.85,10.0,East,4.6,-,N/A,,Clear,90,2014-01-15 03:53:00
6:53 PM,73.0,66.9,81,29.86,10.0,Calm,Calm,-,N/A,,Clear,0,2014-01-15 04:53:00
7:46 PM,69.8,66.2,88,29.88,10.0,West,9.2,-,N/A,,Partly Cloudy,280,2014-01-15 05:46:00
7:53 PM,70.0,66.9,90,29.87,10.0,West,8.1,-,N/A,,Clear,280,2014-01-15 05:53:00
8:53 PM,69.1,66.0,90,29.88,10.0,WNW,5.8,-,N/A,,Clear,290,2014-01-15 06:53:00
9:53 PM,68.0,64.9,90,29.90,10.0,West,9.2,-,N/A,,Clear,260,2014-01-15 07:53:00
10:53 PM,66.9,64.9,93,29.89,10.0,West,6.9,-,N/A,,Clear,260,2014-01-15 08:53:00
11:44 PM,66.2,62.6,88,29.89,10.0,WSW,5.8,-,N/A,,Partly Cloudy,250,2014-01-15 09:44:00
11:53 PM,64.9,63.0,93,29.89,10.0,WSW,6.9,-,N/A,,Partly Cloudy,240,2014-01-15 09:53:00